EW5311 Weather Reports


time (UTC)temp
F
wind
direction
speed
knots
gust
knots
rain 1hr
in
rain 24hr
in
rain mn
in
humidity
%
barometer
mb
20260503200020 54 240 7.0 20.0 0.00 0.00 0.00 41 1011.6
20260503194522 54 271 5.2 16.5 0.00 0.00 0.00 41 1011.9
20260503193027 54 239 6.1 15.6 0.00 0.00 0.00 42 1011.9
20260503191517 54 232 7.0 17.4 0.00 0.00 0.00 41 1012.2
20260503190014 54 280 7.0 16.5 0.00 0.00 0.00 42 1012.3
20260503184559 53 287 6.1 16.5 0.00 0.00 0.00 41 1012.4
20260503183111 53 275 7.0 14.8 0.00 0.00 0.00 41 1012.7
20260503181534 52 308 10.4 17.4 0.00 0.00 0.00 41 1012.8
20260503180040 52 278 9.6 18.2 0.00 0.00 0.00 40 1012.9
20260503174514 52 297 7.8 11.3 0.00 0.00 0.00 40 1012.9
20260503173015 52 312 4.3 13.9 0.00 0.00 0.00 41 1013.1
20260503171610 52 308 7.8 15.6 0.00 0.00 0.00 41 1013.2
20260503140139 43 265 5.2 16.5 0.00 0.00 0.00 64 1014.8
20260503120125 35 312 4.3 7.8 0.00 0.00 0.00 84 1015.0
20260503081558 30 291 1.7 2.6 0.00 0.00 0.00 91 1014.0
20260503071551 32 291 0.9 2.6 0.00 0.01 0.00 86 1013.7
20260503054547 34 293 1.7 2.6 0.00 0.01 0.00 83 1014.0
20260503053038 34 292 1.7 2.6 0.00 0.01 0.00 83 1014.0
20260503051533 34 292 0.0 2.6 0.00 0.01 0.00 82 1014.2
20260503050033 34 293 1.7 2.6 0.00 0.01 0.01 82 1014.2
20260503044533 34 291 1.7 3.5 0.00 0.01 0.01 82 1014.3
20260503043032 35 291 1.7 3.5 0.00 0.01 0.01 81 1014.4
20260503041532 35 291 0.9 2.6 0.00 0.01 0.01 78 1014.4
20260503040039 35 291 0.9 2.6 0.00 0.01 0.01 77 1014.5
20260503034544 36 291 0.9 2.6 0.00 0.01 0.01 76 1014.5
20260503033038 36 291 0.9 2.6 0.00 0.01 0.01 75 1014.4
20260503031537 37 289 1.7 3.5 0.00 0.01 0.01 74 1014.4
20260503030014 37 291 0.9 2.6 0.00 0.01 0.01 74 1014.5
20260503024511 38 291 0.9 2.6 0.00 0.01 0.01 69 1014.5
20260503023054 38 292 0.9 2.6 0.00 0.01 0.01 69 1014.7
20260503021553 38 292 1.7 4.3 0.00 0.01 0.01 67 1014.5
20260503020040 38 293 1.7 3.5 0.00 0.01 0.01 66 1014.5
20260503014540 39 301 1.7 3.5 0.00 0.01 0.01 65 1014.4
20260503013018 40 304 1.7 3.5 0.00 0.01 0.01 62 1014.4
20260503011516 40 303 2.6 4.3 0.00 0.01 0.01 61 1014.3
20260503010100 40 293 1.7 4.3 0.00 0.01 0.01 59 1014.3
20260503004603 40 300 4.3 7.8 0.00 0.01 0.01 58 1014.1
20260503003141 41 322 1.7 7.0 0.00 0.01 0.01 57 1013.9
20260503001541 41 285 5.2 10.4 0.00 0.01 0.01 58 1013.9
20260503000029 41 298 4.3 8.7 0.00 0.03 0.01 57 1013.7
20260502234522 41 274 5.2 10.4 0.00 0.03 0.01 57 1013.6
20260502233004 42 274 3.5 7.0 0.00 0.03 0.01 59 1013.5
20260502231509 42 312 4.3 9.6 0.00 0.03 0.01 61 1013.4
20260502230052 42 293 2.6 7.8 0.00 0.05 0.01 62 1013.2
20260502224552 42 293 4.3 10.4 0.00 0.05 0.01 61 1013.2
20260502223051 42 204 3.5 7.0 0.00 0.05 0.01 63 1013.2
20260502221550 43 252 5.2 9.6 0.00 0.05 0.01 61 1013.1
20260502220059 43 277 3.5 11.3 0.00 0.09 0.01 63 1013.1
20260502214549 44 240 3.5 7.8 0.00 0.09 0.01 61 1013.0
20260502213050 43 285 0.0 7.0 0.00 0.09 0.01 62 1013.0
20260502211550 43 287 3.5 13.0 0.00 0.09 0.01 63 1013.0
20260502210030 43 266 6.1 12.2 0.00 0.11 0.01 63 1013.0
20260502204531 43 266 4.3 12.2 0.00 0.11 0.01 62 1012.8
20260502203011 45 346 4.3 13.9 0.00 0.11 0.01 61 1012.8
20260502201509 43 269 5.2 9.6 0.00 0.11 0.01 66 1012.9